Location: ???????
(55.4362°N, 38.1183°E)
Time: 01:43:08
(UTC+00:00)

METEOR M2 - Pass Details

Date: 05 December 2021
Orbit: 818 x 827 km, 98.4° (Epoch: 28 January)

Event Time Altitude Azimuth Distance (km) Brightness Sun altitude
Rises 04:09:15 0° 20° (NNE) 3,372 ? -11.4°
Reaches altitude 10° 04:11:52 10° 30° (NNE) 2,433 ? -11.1°
Maximum altitude 04:16:40 32° 94° (E) 1,380 ? -10.4°
Drops below altitude 10° 04:21:26 10° 156° (SSE) 2,413 ? -9.8°
Sets 04:24:00 0° 167° (SSE) 3,340 ? -9.5°
